Location: Chandolas
(44.4033°N, 4.2533°E)
Time: 21:25:27
(UTC+00:00)

Cosmos 1802 Rocket - Pass Details

Date: 15 November 2019
Orbit: 954 x 1012 km, 82.9° (Epoch: 07 December)

Event Time Altitude Azimuth Distance (km) Brightness Sun altitude
Rises 05:45:01 0° 203° (SSW) 3,730 7.0 -9.7°
Reaches altitude 10° 05:47:38 10° 209° (SSW) 2,786 6.3 -9.3°
Maximum altitude 05:53:50 50° 283° (WNW) 1,272 4.3 -8.2°
Drops below altitude 10° 06:00:04 10° 359° (N) 2,793 6.2 -7.2°
Sets 06:02:42 0° 4° (N) 3,742 6.9 -6.7°
